Date,TemperatureHighF,TemperatureAvgF,TemperatureLowF,DewpointHighF,DewpointAvgF,DewpointLowF,HumidityHigh,HumidityAvg,HumidityLow,PressureMaxIn,PressureMinIn,WindSpeedMaxMPH,WindSpeedAvgMPH,GustSpeedMaxMPH,PrecipitationSumIn
2014-1-1,58.9,49.2,43.9,47.4,42.9,39.1,90,79,64,30.12,30.05,7,1,9,0.00
2014-1-2,55.7,50.1,41.4,51.6,45.9,38.7,91,85,77,30.11,30.03,8,3,17,0.01
2014-1-3,61.5,56.8,54.1,55.4,52.5,49.1,93,86,74,30.17,30.05,10,3,17,0.02
2014-1-4,60.2,57.9,53.8,57.7,55.0,49.6,94,90,82,30.16,29.92,12,5,26,0.11
2014-1-5,60.0,54.2,48.3,56.9,50.8,44.9,96,88,75,29.92,29.70,21,7,31,0.62
2014-1-6,60.7,50.7,42.9,48.5,44.8,40.5,91,81,59,30.20,29.83,8,2,13,0.00
2014-1-7,59.7,50.5,42.8,51.8,46.3,40.4,93,86,69,30.32,30.20,7,2,10,0.00
2014-1-8,58.1,49.9,42.8,51.4,46.0,40.9,93,87,74,30.37,30.29,6,2,8,0.00
2014-1-9,55.0,47.9,41.4,48.6,44.5,39.8,94,88,79,30.29,30.19,5,1,6,0.00
2014-1-10,55.0,52.9,50.4,49.6,48.3,47.2,89,84,80,30.19,30.13,7,1,8,0.00
2014-1-11,59.6,50.9,43.3,50.6,46.3,41.1,92,85,71,30.21,30.15,6,2,8,0.00
2014-1-12,57.9,50.8,44.7,49.8,46.3,42.5,92,85,73,30.19,30.12,6,1,9,0.00
2014-1-13,59.7,50.1,42.3,49.0,45.5,40.1,92,84,66,30.13,29.97,7,2,9,0.00
2014-1-14,54.9,53.0,50.9,53.4,50.3,47.8,95,90,84,29.97,29.73,9,4,20,0.39
2014-1-15,56.8,50.7,46.5,51.2,47.7,44.3,95,90,80,29.96,29.76,8,2,10,0.02
2014-1-16,56.6,49.4,42.3,52.2,46.2,40.7,95,89,76,30.07,29.96,8,3,17,0.00
2014-1-17,58.4,55.8,53.1,54.4,51.9,48.7,91,87,84,30.01,29.88,12,7,26,0.00
2014-1-18,62.5,59.0,55.1,54.6,52.5,49.3,89,79,70,29.91,29.69,15,8,28,0.01
2014-1-19,63.5,58.3,51.9,57.3,54.0,49.5,92,86,75,29.69,29.54,14,6,27,0.11
2014-1-20,57.9,53.1,49.8,52.7,50.0,47.5,95,89,72,29.58,29.47,13,4,21,0.63
2014-1-21,57.9,52.5,49.3,49.8,48.5,47.6,95,87,72,29.80,29.47,8,2,12,0.02
2014-1-22,54.9,51.4,48.7,52.2,48.5,44.2,95,90,81,29.99,29.80,7,1,13,0.17
2014-1-23,57.2,51.2,45.2,50.7,46.8,41.4,94,85,76,30.01,29.89,8,3,17,0.07
2014-1-24,54.6,50.2,45.9,51.1,47.0,39.2,96,89,75,29.89,29.50,13,4,25,0.54
2014-1-25,53.5,48.1,43.9,39.2,34.7,29.6,75,60,50,29.84,29.49,21,12,35,0.00
2014-1-26,52.9,44.6,37.4,42.2,33.9,30.5,80,67,53,29.85,29.70,14,4,23,0.00
2014-1-27,49.8,44.1,37.3,45.9,37.7,30.4,93,79,52,29.78,29.38,13,2,29,0.21
2014-1-28,54.4,46.0,39.8,42.1,39.8,34.5,94,80,59,29.55,29.38,12,2,20,0.00
2014-1-29,55.7,45.6,36.7,52.3,41.2,33.8,94,85,63,29.74,29.54,15,4,26,0.19
2014-1-30,58.2,55.9,52.9,52.7,50.9,48.4,90,84,76,29.76,29.68,20,10,38,0.06
2014-1-31,58.0,55.2,51.6,56.0,53.4,50.0,97,93,83,29.80,29.69,18,7,39,2.44
2014-2-1,57.1,54.5,52.5,55.7,52.6,50.4,96,93,86,29.82,29.73,9,2,15,0.39
2014-2-2,53.3,51.6,49.1,52.5,50.4,48.0,97,96,90,29.75,29.68,8,2,15,1.17
2014-2-3,57.2,53.4,51.4,53.8,51.1,49.8,97,92,79,29.90,29.69,9,1,21,0.32
2014-2-4,57.1,52.1,49.1,52.7,49.6,46.0,95,91,84,30.01,29.90,8,1,16,0.06
2014-2-5,54.7,51.2,48.4,51.3,47.8,45.2,94,88,79,30.00,29.80,8,3,25,0.57
2014-2-6,59.0,53.3,46.4,52.4,46.6,43.9,95,79,63,30.03,29.75,12,3,25,0.03
2014-2-7,59.7,52.3,42.4,51.1,46.6,40.0,94,82,61,30.05,29.90,15,5,28,0.01
2014-2-8,60.1,54.4,51.0,54.0,49.3,44.6,96,83,62,29.91,29.81,14,3,24,0.09
2014-2-9,59.2,54.8,50.2,52.7,48.4,42.9,95,80,56,29.89,29.65,25,6,37,0.23
2014-2-10,58.2,53.7,49.6,55.3,49.2,45.6,94,85,72,29.89,29.60,21,9,39,0.20
2014-2-11,60.0,55.1,50.6,55.4,51.1,47.0,95,87,64,29.72,29.60,10,2,16,0.36
2014-2-12,59.1,52.5,47.9,50.4,46.9,43.9,92,82,63,29.92,29.61,9,1,13,0.00
2014-2-13,58.8,51.2,42.0,49.1,45.3,39.9,93,81,60,29.98,29.86,9,2,22,0.00
2014-2-14,65.6,56.3,50.9,52.5,48.5,41.6,93,76,43,29.99,29.77,10,4,18,0.00
2014-2-15,64.4,55.1,45.7,53.5,47.8,42.9,92,78,52,30.07,29.98,12,4,23,0.00
2014-2-16,66.6,59.3,54.5,53.4,48.1,44.7,86,67,53,30.07,29.97,13,6,31,0.00
2014-2-17,66.2,60.4,56.8,55.1,52.6,49.0,88,76,64,30.07,29.96,22,9,31,0.00
2014-2-18,71.0,63.5,53.5,50.3,45.8,39.6,78,54,36,30.08,29.92,14,5,31,0.00
2014-2-19,66.2,61.0,56.4,56.7,52.4,44.5,92,74,46,29.94,29.87,17,8,33,0.00
2014-2-20,57.6,55.5,51.8,54.5,50.9,47.4,95,85,71,29.93,29.86,8,2,16,0.13
2014-2-21,63.1,52.8,45.6,50.1,46.8,43.7,94,81,58,29.94,29.85,12,2,18,0.00
2014-2-22,62.7,54.9,48.8,51.3,48.0,43.5,92,78,55,30.05,29.89,9,3,18,0.00
2014-2-23,60.8,51.4,43.6,45.8,41.1,36.2,90,69,48,30.11,30.03,14,4,23,0.00
2014-2-24,62.1,50.7,43.4,42.7,39.3,36.2,81,66,41,30.12,30.06,8,2,14,0.00
2014-2-25,61.8,51.3,42.3,46.1,42.4,38.5,87,73,48,30.16,30.10,8,1,13,0.00
2014-2-26,58.2,52.1,44.5,49.8,46.5,41.5,92,81,64,30.19,30.13,10,3,22,0.02
2014-2-27,59.2,53.5,47.7,52.1,48.1,42.8,92,82,64,30.18,30.06,9,2,21,0.00
2014-2-28,55.7,50.5,46.3,51.2,45.8,41.1,92,84,78,30.06,29.68,9,3,22,0.33
2014-3-1,54.6,49.8,44.4,48.4,45.4,40.6,94,85,68,29.68,29.42,15,5,33,0.51
2014-3-2,50.6,46.9,43.2,44.8,41.9,39.1,92,83,75,29.57,29.36,14,3,25,0.03
2014-3-3,59.3,49.3,39.5,47.6,42.9,37.4,97,79,52,29.58,29.22,9,2,21,0.26
2014-3-4,55.3,49.0,45.2,47.6,45.2,42.4,94,87,73,29.48,29.17,9,3,21,0.24
2014-3-5,63.0,51.9,41.8,48.5,42.4,38.8,90,71,46,29.82,29.48,12,5,17,0.00
2014-3-6,60.9,54.8,50.1,44.5,41.9,40.0,73,62,51,30.03,29.82,14,6,22,0.00
2014-3-7,69.3,56.7,48.1,48.2,43.2,39.2,81,62,36,30.09,29.98,13,3,20,0.00
2014-3-8,61.6,55.7,48.5,44.1,42.1,39.2,77,61,49,30.26,30.07,14,5,23,0.00
2014-3-9,67.1,56.1,45.2,47.3,40.3,36.4,76,57,33,30.26,30.11,10,4,20,0.00
2014-3-10,63.5,54.4,47.6,46.7,39.6,36.0,72,58,40,30.11,29.97,8,3,15,0.00
2014-3-11,56.8,54.4,52.0,46.3,44.7,41.9,79,70,61,30.25,30.09,6,2,10,0.00
2014-3-12,64.5,53.9,45.4,44.2,38.4,31.3,79,58,30,30.36,30.24,9,2,15,0.00
2014-3-13,66.5,54.8,43.8,46.0,41.2,36.0,79,62,36,30.35,30.26,7,2,12,0.00
2014-3-14,65.1,55.3,46.1,50.3,44.3,38.8,84,68,39,30.27,30.18,7,2,12,0.00
2014-3-15,65.2,56.9,49.6,50.5,47.3,41.4,89,72,44,30.18,29.97,10,2,17,0.00
2014-3-16,66.8,56.2,46.0,53.0,49.0,43.3,93,78,51,30.07,29.92,9,2,13,0.00
2014-3-17,68.5,57.9,47.2,56.7,51.4,44.1,95,80,58,30.20,30.06,7,1,12,0.00
2014-3-18,64.3,56.3,47.6,55.4,51.4,45.3,95,84,60,30.20,30.14,10,2,16,0.01
2014-3-19,66.0,57.5,51.6,55.0,51.9,48.9,94,82,66,30.19,30.11,8,1,15,0.00
2014-3-20,71.1,60.0,49.4,55.9,51.9,47.4,94,76,54,30.24,30.17,8,1,12,0.00
2014-3-21,67.6,59.0,51.5,56.3,52.4,47.7,94,80,52,30.17,30.10,10,1,15,0.00
2014-3-22,63.6,58.3,53.8,57.3,54.1,51.3,93,86,76,30.11,29.91,13,4,25,0.00
2014-3-23,60.4,56.9,53.6,58.1,51.2,41.9,95,82,64,29.91,29.70,16,8,27,0.07
2014-3-24,57.0,51.7,44.9,46.3,42.6,40.1,88,72,55,29.84,29.66,17,5,31,0.08
2014-3-25,56.9,47.6,40.3,46.0,42.7,38.1,93,84,59,29.84,29.70,10,1,20,0.07
2014-3-26,58.2,51.9,44.4,48.2,45.6,41.4,93,80,64,29.74,29.66,9,2,20,0.03
2014-3-27,54.9,51.7,48.6,49.2,46.6,44.9,92,83,72,29.67,29.49,17,5,30,0.14
2014-3-28,63.3,54.5,46.1,49.2,45.9,42.0,89,74,56,30.06,29.67,16,4,24,0.01
2014-3-29,68.3,57.0,45.9,51.5,47.2,41.7,86,71,50,30.13,30.05,8,1,13,0.00
2014-3-30,69.5,58.5,50.6,51.7,48.1,43.2,87,70,41,30.12,30.01,5,0,12,0.00
2014-3-31,67.0,58.0,49.5,52.9,49.2,45.2,89,74,50,30.04,29.96,16,4,23,0.00
2014-4-1,67.6,57.3,47.0,54.9,50.5,44.8,92,80,49,30.04,30.00,10,1,16,0.00
2014-4-2,67.1,57.7,49.9,55.6,51.5,47.1,94,81,56,30.03,29.94,7,1,13,0.00
2014-4-3,69.4,59.2,50.3,54.0,47.7,36.8,90,68,39,29.96,29.67,8,2,16,0.00
2014-4-4,66.5,60.3,54.4,59.0,51.3,37.0,94,74,42,29.67,29.53,20,4,41,0.31
2014-4-5,64.3,58.0,51.6,54.7,51.6,48.9,91,80,64,29.82,29.66,9,1,16,0.00
2014-4-6,73.2,61.9,52.6,54.3,49.4,46.1,88,65,39,29.96,29.82,10,3,15,0.00
2014-4-7,75.1,64.4,54.1,57.6,52.2,47.9,89,66,43,30.08,29.97,9,3,14,0.00
2014-4-8,73.1,63.1,55.1,61.8,56.0,51.0,91,78,62,30.14,30.07,8,2,13,0.00
2014-4-9,70.0,62.8,57.5,59.0,55.5,46.5,93,78,57,30.07,29.95,12,2,18,0.00
2014-4-10,67.5,60.4,52.4,54.0,47.1,43.2,84,62,45,30.11,30.03,9,2,20,0.00
2014-4-11,68.7,59.3,49.7,55.8,51.0,44.7,90,75,56,30.06,30.00,9,1,15,0.00
2014-4-12,66.3,59.3,52.7,57.2,54.3,50.7,93,84,69,30.04,29.98,9,2,17,0.00
2014-4-13,68.2,60.6,54.7,57.0,54.3,51.8,93,81,56,30.02,29.94,13,3,20,0.00
2014-4-14,69.8,61.0,53.6,57.6,54.7,50.6,92,80,61,30.07,29.97,9,2,16,0.00
2014-4-15,64.6,57.4,52.1,57.4,51.0,37.8,93,80,56,29.97,29.78,14,4,27,0.05
2014-4-16,62.2,55.0,47.6,38.9,35.5,31.6,64,49,33,30.05,29.91,21,8,32,0.00
2014-4-17,62.0,55.2,47.8,36.2,34.7,31.1,60,47,34,30.05,29.89,24,10,38,0.00
2014-4-18,66.8,56.4,47.5,52.8,42.9,33.8,87,62,40,29.90,29.72,16,5,26,0.00
2014-4-19,60.2,57.0,52.8,57.2,52.9,48.6,93,86,76,29.74,29.64,14,6,30,0.11
2014-4-20,67.9,58.5,50.8,55.5,51.3,46.9,97,79,50,29.75,29.66,7,1,12,0.02
2014-4-21,71.6,61.4,52.7,57.2,52.8,46.6,92,75,48,29.82,29.65,16,2,20,0.00
2014-4-22,71.9,62.1,52.5,60.3,55.9,49.7,93,81,61,29.92,29.82,13,1,18,0.00
2014-4-23,73.1,64.6,59.2,62.7,58.5,52.0,95,81,57,29.93,29.83,10,2,17,0.05
2014-4-24,74.6,66.0,57.1,58.2,53.4,50.3,88,65,46,29.92,29.87,21,6,35,0.00
2014-4-25,73.9,63.4,56.8,58.4,55.2,51.0,91,75,53,29.89,29.79,14,3,23,0.00
2014-4-26,68.8,62.5,57.2,60.2,57.5,54.9,93,84,67,29.81,29.75,15,3,22,0.00
2014-4-27,64.0,59.1,54.4,59.5,56.0,52.1,96,90,69,29.79,29.64,10,3,20,0.31
2014-4-28,67.4,59.1,53.6,56.6,53.3,51.0,96,82,60,29.74,29.62,14,2,20,0.14
2014-4-29,65.7,59.3,51.6,55.7,52.0,47.6,91,77,60,29.83,29.68,14,3,21,0.03
2014-4-30,66.5,60.1,52.6,58.3,54.7,50.6,94,82,71,29.85,29.77,10,2,22,0.00
2014-5-1,70.1,60.5,51.8,55.2,51.6,47.0,89,74,46,29.85,29.76,15,4,22,0.00
2014-5-2,62.0,57.9,53.3,59.0,54.3,51.3,93,88,76,29.85,29.73,10,2,22,0.52
2014-5-3,65.5,56.0,51.2,55.4,51.8,48.8,94,87,65,29.75,29.59,13,2,20,1.14
2014-5-4,68.6,59.8,53.4,53.3,49.2,44.7,94,70,49,29.87,29.63,13,5,21,0.01
2014-5-5,69.2,60.3,52.3,51.4,47.2,43.6,85,63,43,30.06,29.87,12,3,17,0.00
2014-5-6,74.4,62.4,51.2,58.3,52.4,47.6,93,72,41,30.16,30.06,9,2,16,0.00
2014-5-7,71.5,62.0,55.7,59.3,55.1,49.9,97,80,49,30.16,30.05,7,1,12,0.01
2014-5-8,72.2,63.9,56.2,58.7,55.7,52.6,91,76,53,30.06,30.00,13,3,20,0.00
2014-5-9,75.4,65.0,55.6,60.2,55.8,52.8,91,74,51,30.05,29.99,12,3,17,0.00
2014-5-10,72.8,64.6,58.1,62.3,59.4,56.2,95,84,67,30.03,29.98,8,2,14,0.00
2014-5-11,71.0,65.0,60.3,61.8,59.6,55.2,94,84,60,30.00,29.89,12,5,21,0.00
2014-5-12,73.4,65.8,58.4,62.5,58.0,50.0,94,78,48,29.95,29.87,10,4,18,0.00
2014-5-13,68.9,62.2,55.3,59.7,55.7,47.0,92,80,66,29.96,29.80,25,6,36,0.02
2014-5-14,72.2,61.5,52.5,48.4,45.0,36.6,82,57,28,30.03,29.81,24,8,38,0.00
2014-5-15,72.8,62.2,53.0,47.1,42.0,31.3,72,50,23,30.04,29.91,20,4,28,0.00
2014-5-16,68.0,62.7,54.9,55.8,45.2,39.6,75,53,38,29.97,29.87,16,3,22,0.00
2014-5-17,73.4,64.1,56.8,54.8,48.6,42.7,82,59,34,30.06,29.93,12,3,18,0.00
2014-5-18,71.2,62.4,54.1,57.9,53.3,46.4,90,73,42,30.06,30.01,13,4,23,0.00
2014-5-19,68.9,63.0,58.1,57.6,53.8,45.1,88,72,44,30.02,29.96,8,2,20,0.00
2014-5-20,73.7,66.4,57.7,61.2,57.4,53.1,89,74,51,30.09,30.01,9,2,16,0.00
2014-5-21,76.5,68.5,57.7,63.0,58.4,54.5,91,72,49,30.08,30.02,10,1,16,0.00
2014-5-22,77.8,69.9,59.4,61.2,57.7,54.5,88,67,47,30.05,29.91,15,2,22,0.00
2014-5-23,73.5,68.0,63.4,64.9,60.8,57.3,92,78,65,30.01,29.87,14,4,22,0.28
2014-5-24,78.1,69.8,63.3,64.4,59.7,51.3,95,73,42,30.00,29.96,12,2,18,0.00
2014-5-25,81.6,70.8,60.2,62.5,57.4,53.8,81,64,44,30.00,29.89,10,2,14,0.01
2014-5-26,73.9,67.6,60.3,62.1,57.8,50.3,88,72,53,30.00,29.92,10,3,20,0.02
2014-5-27,69.0,63.8,58.4,61.4,57.3,54.7,94,80,62,29.99,29.92,13,4,22,0.00
2014-5-28,69.2,63.8,57.5,58.2,56.2,52.9,89,77,61,29.95,29.86,12,2,21,0.00
2014-5-29,74.4,66.8,61.3,60.3,54.8,45.3,87,67,39,29.91,29.83,18,5,27,0.00
2014-5-30,74.8,66.8,57.3,59.7,56.7,52.6,92,72,48,29.93,29.87,13,3,20,0.00
2014-5-31,73.2,65.0,57.7,61.3,57.9,54.5,91,78,64,29.95,29.89,13,1,22,0.02
2014-6-1,74.8,66.3,56.1,57.6,50.8,45.1,92,59,37,29.97,29.92,10,4,18,0.00
2014-6-2,75.0,66.7,57.3,60.7,54.7,49.6,85,66,49,29.99,29.90,13,3,17,0.00
2014-6-3,79.0,69.1,60.4,62.7,57.0,47.5,88,68,34,29.93,29.82,12,3,18,0.00
2014-6-4,78.8,70.0,62.5,62.5,57.0,49.3,90,66,37,29.95,29.83,16,4,23,0.00
2014-6-5,75.2,68.1,60.4,63.2,60.0,56.7,93,77,54,30.07,29.94,12,3,20,0.00
2014-6-6,81.4,71.3,60.5,63.2,58.8,52.8,94,67,38,30.08,30.03,8,2,13,0.00
2014-6-7,85.9,74.8,64.7,64.1,58.1,50.2,84,58,37,30.06,30.01,14,3,21,0.00
2014-6-8,88.8,77.3,67.0,66.9,60.8,54.0,81,58,41,30.04,29.99,8,2,16,0.00
2014-6-9,92.1,79.7,68.5,65.8,58.1,50.8,81,50,26,30.03,29.97,10,2,16,0.00
2014-6-10,89.9,80.3,68.9,65.7,58.7,54.9,72,50,32,30.03,29.98,10,2,16,0.00
2014-6-11,91.2,79.7,68.7,70.1,63.8,59.9,86,60,38,30.07,30.01,9,2,15,0.00
2014-6-12,91.3,79.5,70.8,71.8,67.0,62.2,90,67,43,30.06,29.99,13,2,25,0.02
2014-6-13,86.9,78.2,68.2,69.3,64.2,60.9,78,63,46,30.00,29.85,9,2,15,0.00
2014-6-14,81.9,73.4,66.8,70.5,65.3,60.4,87,76,62,29.85,29.71,17,3,27,0.01
2014-6-15,77.3,67.6,64.0,66.5,62.5,60.1,92,84,67,29.80,29.73,16,5,33,0.73
2014-6-16,74.9,67.0,59.0,64.3,61.1,56.4,93,82,60,29.91,29.76,17,2,35,2.39
2014-6-17,76.0,68.0,62.1,68.2,63.3,60.3,94,86,66,29.84,29.78,12,2,17,0.74
2014-6-18,77.4,68.0,62.9,66.3,62.3,58.1,93,83,60,29.93,29.82,9,1,17,0.23
2014-6-19,79.5,70.7,62.4,64.7,59.9,55.4,92,70,44,29.93,29.86,21,5,30,0.00
2014-6-20,80.2,72.2,63.0,64.0,59.8,56.3,86,66,48,29.95,29.90,14,3,22,0.00
2014-6-21,78.6,71.6,63.8,66.6,63.7,59.7,88,77,63,30.04,29.92,15,2,22,0.00
2014-6-22,83.6,72.3,64.5,66.8,63.6,59.2,92,76,45,30.14,30.04,10,1,20,0.00
2014-6-23,83.0,74.5,66.6,66.7,61.3,54.0,89,66,38,30.17,30.01,12,3,20,0.00
2014-6-24,85.4,76.5,66.3,67.6,58.9,48.5,78,57,28,30.08,29.83,16,5,30,0.00
2014-6-25,81.8,74.8,70.6,72.3,68.1,65.0,92,80,60,29.88,29.78,14,4,26,0.40
2014-6-26,73.5,69.9,66.0,67.2,64.9,62.3,90,84,71,29.92,29.81,8,1,17,0.55
2014-6-27,82.1,74.3,66.7,68.4,65.3,62.1,93,75,53,30.06,29.90,13,2,20,0.02
2014-6-28,81.4,74.4,67.5,70.7,66.7,62.0,95,78,55,30.07,30.02,9,2,17,0.00
2014-6-29,83.6,75.4,65.0,69.2,62.9,58.3,86,67,43,30.02,29.75,14,4,26,0.00
2014-6-30,80.7,75.8,69.2,71.1,63.2,57.7,91,66,50,29.95,29.74,12,3,20,0.00
2014-7-1,78.0,71.8,64.5,66.5,63.5,60.2,89,76,59,30.06,29.95,12,3,21,0.00
2014-7-2,81.4,72.5,63.5,66.0,61.7,58.8,92,71,49,30.16,30.03,8,1,14,0.00
2014-7-3,88.6,75.3,65.2,64.6,59.3,49.9,85,61,27,30.20,30.13,9,2,16,0.00
2014-7-4,87.8,78.5,69.3,70.6,63.8,58.7,77,61,51,30.14,29.92,14,3,22,0.00
2014-7-5,82.7,76.8,72.4,70.7,66.9,59.8,86,72,56,29.97,29.88,9,3,17,0.00
2014-7-6,86.9,77.4,67.9,68.5,64.7,61.2,84,66,44,29.96,29.93,9,1,17,0.00
2014-7-7,84.5,76.4,69.0,71.1,67.4,63.8,90,75,56,30.03,29.88,10,2,20,0.00
2014-7-8,77.2,74.3,69.9,71.4,65.0,60.8,87,73,62,29.92,29.81,14,5,24,0.00
2014-7-9,76.8,70.9,64.7,64.5,61.7,58.4,87,73,56,29.86,29.79,13,4,23,0.00
2014-7-10,75.5,70.8,64.9,61.4,58.6,53.4,81,66,50,29.79,29.66,13,3,23,0.00
2014-7-11,78.0,70.9,62.1,65.9,59.5,56.6,84,68,49,29.85,29.75,14,3,21,0.00
2014-7-12,78.3,71.3,65.3,65.4,63.4,59.5,90,77,55,29.91,29.85,10,3,20,0.00
2014-7-14,78.0,71.5,65.7,66.6,63.4,60.1,90,76,62,29.94,29.88,10,2,17,0.00
2014-7-15,84.0,73.8,64.5,68.9,64.0,59.8,88,73,50,29.97,29.92,9,2,17,0.00
2014-7-16,89.3,78.6,69.7,68.2,64.3,60.3,88,64,39,30.01,29.95,12,2,18,0.00
2014-7-17,87.9,76.5,69.2,68.4,65.3,59.0,83,69,46,30.06,29.97,21,3,41,0.28
2014-7-18,89.6,79.1,67.6,66.0,63.5,60.8,84,61,41,30.02,29.93,12,4,18,0.00
2014-7-19,89.0,80.6,71.3,68.4,64.2,59.6,74,58,39,30.00,29.96,7,2,14,0.00
2014-7-20,90.3,79.6,71.3,69.8,65.2,59.3,76,62,41,30.01,29.90,12,2,20,0.00
2014-7-21,82.3,75.7,70.0,70.0,65.2,54.2,88,71,39,29.96,29.80,15,5,27,0.11
2014-7-22,75.9,70.7,66.7,67.9,65.4,59.9,93,83,70,29.80,29.70,8,1,18,0.11
2014-7-23,83.0,74.8,67.1,69.2,65.7,62.0,91,75,53,29.83,29.75,12,3,20,0.00
2014-7-24,81.4,74.9,70.0,71.6,68.3,64.5,96,81,61,29.90,29.81,10,2,17,0.00
2014-7-25,83.9,75.8,68.5,70.9,68.0,65.1,90,77,57,29.92,29.88,8,1,16,0.00
2014-7-26,82.4,75.2,69.1,70.6,67.2,63.6,90,77,55,29.92,29.77,10,1,18,0.03
2014-7-27,81.4,75.5,69.9,69.4,66.8,64.2,90,75,60,29.87,29.78,15,2,21,0.50
2014-7-28,82.7,75.2,68.8,71.3,68.3,65.7,94,80,60,29.89,29.85,10,1,17,0.01
2014-7-29,80.5,75.0,67.6,70.9,69.0,65.1,92,82,60,29.86,29.67,13,4,30,0.66
2014-7-30,77.5,69.8,63.7,65.9,62.4,56.9,94,79,50,29.75,29.64,10,2,28,0.23
2014-7-31,81.0,75.8,65.0,68.8,65.9,60.7,86,72,62,29.83,29.78,10,3,20,0.00
2014-8-1,84.6,77.1,69.7,71.7,68.9,66.7,91,77,58,29.83,29.77,14,3,20,0.00
2014-8-2,85.4,77.5,73.1,71.9,70.2,67.1,92,79,55,29.92,29.80,12,2,19,0.00
2014-8-3,84.8,75.4,70.8,71.2,68.9,66.1,94,81,54,29.96,29.85,9,2,15,0.21
2014-8-4,87.9,78.5,70.1,71.3,66.0,60.1,88,67,42,29.94,29.90,10,3,18,0.00
2014-8-5,87.3,78.1,70.1,70.4,66.3,57.8,88,69,40,29.93,29.83,9,3,20,0.00
2014-8-6,89.5,78.6,69.0,68.1,62.8,60.0,81,60,41,29.87,29.79,14,3,25,0.00
2014-8-7,85.9,78.0,68.5,65.5,61.5,58.8,73,58,41,29.90,29.83,14,3,20,0.00
2014-8-8,88.0,77.4,68.5,70.9,65.8,60.6,92,69,40,29.97,29.90,10,2,16,0.00
2014-8-9,84.5,76.7,69.3,71.0,68.9,64.9,93,78,60,30.01,29.96,7,1,12,0.00
2014-8-10,87.0,78.0,71.2,71.4,67.9,63.2,91,73,47,30.01,29.95,7,2,15,0.00
2014-8-11,89.1,78.3,67.8,70.0,64.9,57.2,91,66,35,29.97,29.90,12,2,23,0.00
2014-8-12,85.0,78.0,71.0,74.4,69.2,61.9,91,75,63,29.93,29.87,8,1,15,0.00
2014-8-13,84.0,78.6,73.6,74.7,72.8,70.8,92,83,69,29.90,29.77,15,4,27,0.00
2014-8-14,81.4,75.8,69.0,73.3,67.6,63.3,95,77,55,29.90,29.79,10,3,18,0.00
2014-8-15,80.7,73.9,68.2,65.6,63.1,60.5,84,70,53,29.95,29.89,9,2,17,0.00
2014-8-16,82.2,73.5,67.4,64.6,62.9,58.3,87,71,49,29.95,29.91,9,2,18,0.00
2014-8-17,81.8,73.5,64.6,63.4,58.7,52.8,79,61,38,30.00,29.94,9,1,15,0.00
2014-8-18,82.3,72.9,64.1,65.5,61.0,55.9,86,68,42,30.00,29.95,8,2,12,0.00
2014-8-19,82.7,73.4,64.1,66.7,61.6,53.2,81,68,37,29.98,29.84,14,3,28,0.00
2014-8-20,85.2,77.1,68.7,73.6,66.8,59.4,92,71,55,29.96,29.91,12,3,25,0.00
2014-8-21,82.7,76.9,70.9,74.0,69.9,65.6,95,80,60,29.96,29.90,9,2,17,0.00
2014-8-22,85.9,75.9,68.0,70.9,67.5,65.6,92,77,56,29.98,29.92,9,1,16,0.00
2014-8-23,80.9,73.7,67.1,71.4,67.3,62.6,95,81,61,29.98,29.89,14,2,23,0.00
2014-8-24,79.3,72.4,67.1,67.4,64.3,61.1,89,77,56,29.97,29.91,10,2,23,0.00
2014-8-25,83.5,73.8,66.1,65.4,63.5,61.1,86,71,50,30.02,29.95,10,2,18,0.00
2014-8-26,80.9,72.8,66.0,69.4,65.9,62.1,88,79,62,30.02,29.93,9,2,17,0.00
2014-8-27,81.7,75.7,70.5,72.0,68.5,64.9,92,79,63,29.95,29.87,12,4,22,0.00
2014-8-28,83.6,76.7,69.7,73.0,69.0,66.0,92,78,62,29.93,29.86,9,2,16,0.00
2014-8-29,86.1,77.6,70.1,68.3,66.2,62.6,85,69,50,29.97,29.93,9,2,16,0.00
2014-8-30,86.6,77.1,67.5,69.2,67.0,63.5,90,73,50,29.98,29.93,9,2,16,0.00
2014-8-31,82.8,75.2,67.5,72.1,69.2,65.4,94,82,64,29.96,29.80,10,2,16,0.00
2014-9-1,75.0,69.5,62.5,69.8,60.4,53.8,93,74,56,29.80,29.57,23,9,39,0.02
2014-9-2,73.6,70.7,68.2,59.3,58.7,58.0,71,66,61,29.75,29.68,13,6,23,0.00
2014-9-3,81.0,70.9,63.3,66.1,60.5,57.1,81,70,48,29.82,29.74,15,4,22,0.02
2014-9-4,81.3,72.3,64.3,67.1,63.3,60.0,87,74,55,29.87,29.82,9,3,16,0.00
2014-9-5,82.5,73.9,67.4,66.8,64.9,62.6,87,74,55,29.86,29.78,14,3,21,0.00
2014-9-6,82.4,74.3,67.9,66.7,64.0,61.1,85,71,54,29.85,29.76,15,3,24,0.02
2014-9-7,83.0,74.2,66.3,66.6,63.4,60.3,88,70,47,29.93,29.84,14,4,21,0.00
2014-9-8,84.8,74.3,65.6,69.6,65.3,62.2,91,75,47,30.03,29.92,10,2,18,0.00
2014-9-9,82.6,74.4,66.1,70.3,67.8,63.8,93,81,63,30.03,29.94,9,1,16,0.00
2014-9-10,81.5,72.7,66.4,71.1,67.5,63.8,94,85,60,29.97,29.82,14,2,23,0.61
2014-9-11,77.1,70.4,65.3,70.4,66.0,62.7,95,86,70,29.84,29.76,10,2,18,0.86
2014-9-12,79.1,72.1,66.8,69.2,65.9,61.0,92,82,63,29.87,29.75,13,4,25,0.00
2014-9-13,80.5,69.6,59.8,62.5,57.1,50.9,84,67,36,29.96,29.88,8,2,16,0.00
2014-9-14,81.5,70.4,61.1,66.0,59.1,54.5,90,69,41,29.96,29.93,8,2,17,0.00
2014-9-15,79.6,70.8,63.0,67.6,64.4,60.1,93,81,60,30.00,29.94,7,1,12,0.00
2014-9-16,81.5,72.8,65.6,67.4,65.0,61.3,91,78,52,29.95,29.90,10,1,15,0.00
2014-9-17,79.8,71.8,65.0,67.2,64.0,59.2,90,77,61,29.96,29.91,9,1,12,0.00
2014-9-18,82.2,73.7,66.4,67.4,64.5,58.5,90,74,46,30.00,29.93,9,2,17,0.01
2014-9-19,83.4,77.0,70.4,72.3,67.6,61.5,86,73,63,30.10,29.97,12,3,22,0.00
2014-9-20,85.1,78.3,74.5,73.7,72.1,70.4,94,82,63,30.08,29.98,8,1,15,0.00
2014-9-21,81.7,75.2,71.0,73.8,71.5,69.1,95,89,75,30.02,29.92,10,3,20,0.00
2014-9-22,79.8,74.6,71.4,72.0,69.9,67.9,95,86,70,29.93,29.77,9,3,15,0.00
2014-9-23,80.0,72.0,64.7,68.1,60.0,51.5,92,67,49,29.97,29.76,14,2,22,0.00
2014-9-24,77.5,69.0,64.2,63.6,56.3,49.9,86,65,47,30.01,29.95,7,0,12,0.02
2014-9-25,74.7,68.3,64.0,67.5,63.9,61.6,93,86,69,30.00,29.92,9,0,12,0.09
2014-9-26,80.6,69.2,60.0,62.1,57.0,51.8,89,67,37,30.12,30.00,8,3,13,0.00
2014-9-27,81.9,69.0,59.1,61.5,54.6,49.7,80,61,38,30.25,30.12,9,3,13,0.00
2014-9-28,78.1,69.2,61.0,63.9,59.9,54.1,85,73,58,30.30,30.25,7,2,14,0.00
2014-9-29,77.8,69.3,62.2,65.4,61.3,56.6,91,77,59,30.34,30.29,7,2,14,0.00
2014-9-30,78.9,69.1,59.8,63.5,59.9,55.8,89,74,50,30.32,30.26,7,1,13,0.00
2014-10-1,77.5,68.9,61.4,66.7,62.8,57.8,95,81,62,30.27,30.12,21,2,35,1.15
2014-10-2,76.9,67.1,63.3,67.4,64.1,61.4,96,91,70,30.15,30.08,8,1,15,0.22
2014-10-3,79.0,68.8,61.9,65.0,61.9,58.5,94,80,53,30.12,30.03,8,2,12,0.02
2014-10-4,78.0,68.4,61.5,64.4,61.1,56.3,92,78,57,30.04,29.92,9,2,14,0.00
2014-10-5,79.4,68.2,60.4,61.9,59.0,55.8,91,74,47,29.94,29.88,8,3,14,0.00
2014-10-6,78.4,67.7,60.8,62.5,58.8,55.4,87,74,49,29.98,29.89,8,2,14,0.00
2014-10-7,76.1,67.8,59.4,65.3,61.1,56.4,91,80,57,30.10,29.98,9,2,17,0.00
2014-10-8,77.5,69.4,62.4,67.0,63.8,59.1,90,83,66,30.12,30.05,10,3,18,0.00
2014-10-9,80.0,70.3,62.0,66.2,62.6,55.8,93,78,45,30.09,30.04,9,3,18,0.00
2014-10-10,79.8,69.4,61.7,68.5,63.5,57.8,94,82,55,30.09,30.03,8,2,14,0.00
2014-10-11,78.3,70.0,61.6,68.1,63.5,58.7,91,81,60,30.05,29.97,9,2,17,0.00
2014-10-12,78.4,71.3,65.9,70.0,66.2,60.9,93,84,73,30.04,29.98,12,2,20,0.00
2014-10-13,79.3,72.3,65.5,68.8,66.3,63.4,94,82,61,30.02,29.90,9,3,20,0.00
2014-10-14,81.9,75.2,70.3,69.1,63.3,56.4,84,68,46,29.95,29.76,12,4,22,0.00
2014-10-15,80.3,75.5,70.8,71.5,67.0,57.9,95,76,55,29.89,29.73,10,4,25,0.00
2014-10-16,76.7,72.1,68.8,69.4,66.7,64.6,94,84,70,30.06,29.88,8,2,17,0.13
2014-10-17,78.3,71.7,67.6,70.0,66.6,64.5,94,84,65,30.13,30.03,8,2,15,0.00
2014-10-18,81.7,71.9,64.4,68.8,65.4,61.6,92,81,56,30.23,30.12,6,1,12,0.00
2014-10-19,81.2,71.1,64.4,68.3,65.7,62.3,94,84,62,30.25,30.20,7,1,12,0.00
2014-10-20,78.1,69.0,63.4,67.9,64.5,61.9,97,86,64,30.22,30.07,8,1,14,0.02
2014-10-21,75.8,68.5,62.5,67.7,64.6,60.7,95,88,73,30.07,29.77,9,2,15,0.00
2014-10-22,70.7,68.9,66.9,66.8,65.1,63.7,90,88,86,29.76,29.60,8,3,14,0.01
2014-10-24,70.1,61.2,52.5,49.9,46.3,43.3,74,59,45,29.94,29.77,18,7,28,0.01
2014-10-25,71.0,60.8,51.3,48.6,46.8,44.8,79,61,43,30.07,29.93,9,2,21,0.00
2014-10-26,68.2,58.9,51.9,54.1,48.3,44.4,78,68,55,30.16,30.06,8,2,13,0.00
2014-10-27,69.3,59.1,52.1,51.2,47.3,45.0,77,66,45,30.18,30.11,7,2,13,0.00
2014-10-28,67.8,59.1,53.5,49.3,47.3,45.3,77,66,48,30.13,30.05,10,2,14,0.00
2014-10-29,67.3,59.8,50.5,55.9,50.9,45.2,87,73,59,30.11,30.03,8,1,12,0.00
2014-10-30,70.0,60.6,53.1,53.9,48.2,41.9,89,66,37,30.17,30.10,9,4,18,0.00
2014-10-31,71.1,59.0,50.5,49.1,44.9,40.8,75,61,36,30.21,30.14,10,2,15,0.00
2014-11-1,70.0,58.7,48.9,56.5,49.9,43.3,88,73,57,30.22,30.17,8,2,12,0.00
2014-11-2,70.5,57.9,48.5,55.7,49.9,44.1,91,76,46,30.21,30.14,7,2,12,0.00
2014-11-3,69.0,59.1,50.0,57.0,52.0,45.9,91,78,58,30.16,30.05,9,3,16,0.00
2014-11-4,70.8,65.2,60.0,61.7,58.2,53.0,85,78,65,30.04,29.75,16,7,31,0.02
2014-11-5,73.0,69.0,64.7,66.0,63.1,59.6,89,82,74,29.75,29.64,18,9,35,0.00
2014-11-6,65.4,62.2,59.5,63.6,60.0,57.2,95,93,85,29.79,29.69,10,2,23,1.48
2014-11-7,67.8,62.6,58.5,64.2,59.5,57.3,97,90,77,29.78,29.65,13,5,25,1.94
2014-11-8,69.8,62.2,57.1,61.5,58.9,55.7,95,89,69,29.87,29.75,7,2,10,0.00
2014-11-9,70.1,63.2,58.3,61.5,57.3,50.9,94,82,52,30.00,29.85,7,2,13,0.00
2014-11-10,69.8,64.4,59.3,60.9,57.7,54.5,89,79,68,30.05,29.99,10,4,23,0.00
2014-11-11,69.3,63.8,57.4,60.4,56.8,54.5,91,79,68,30.00,29.70,10,4,22,0.00
2014-11-12,66.3,61.1,56.4,62.6,57.1,54.1,94,87,66,29.70,29.64,9,2,21,1.13
2014-11-13,65.8,59.2,55.8,58.7,55.9,53.5,95,89,75,29.90,29.64,10,2,16,0.74
2014-11-14,70.0,59.0,51.4,58.0,54.4,49.8,95,85,62,29.95,29.89,7,1,9,0.01
2014-11-15,64.7,59.3,52.7,59.5,55.9,51.0,95,89,79,29.94,29.73,10,4,24,0.69
2014-11-16,67.7,59.2,53.2,57.9,53.9,51.2,93,83,61,29.85,29.77,10,2,21,0.53
2014-11-17,65.3,59.4,54.2,59.3,54.9,51.5,92,85,76,29.85,29.68,16,4,33,0.38
2014-11-18,65.2,60.2,56.0,54.9,53.2,51.5,91,78,64,29.91,29.74,13,3,22,0.02
2014-11-19,61.5,59.5,52.4,53.8,52.1,48.6,88,77,66,30.17,29.90,8,3,17,0.00
2014-11-20,67.2,55.1,47.3,50.4,47.2,42.6,91,76,44,30.25,30.16,7,2,10,0.00
2014-11-21,66.6,54.3,45.3,50.1,46.3,41.7,88,75,50,30.24,30.16,7,2,12,0.00
2014-11-22,67.7,56.6,47.8,55.3,50.1,44.2,89,80,61,30.26,30.18,6,2,7,0.00
2014-11-23,66.3,58.0,53.7,57.3,53.2,50.1,92,84,65,30.31,30.24,6,2,8,0.00
2014-11-24,67.2,58.5,53.3,59.1,53.5,50.1,91,84,71,30.25,30.16,6,2,8,0.00
2014-11-25,66.9,58.5,52.0,57.2,53.7,49.7,92,85,68,30.17,30.07,7,2,9,0.00
2014-11-26,63.1,58.8,55.5,60.1,56.4,52.8,95,92,88,30.07,29.94,7,2,13,0.95
2014-11-27,67.6,60.6,55.7,61.2,57.5,54.2,95,90,78,29.96,29.88,9,3,17,0.05
2014-11-28,68.9,63.6,55.9,57.7,55.0,52.6,91,74,62,29.90,29.77,12,4,29,0.00
2014-11-29,67.8,65.9,64.5,61.6,58.3,52.9,88,77,59,29.89,29.82,10,4,20,0.02
2014-11-30,74.6,70.0,63.3,61.0,55.1,49.8,89,60,42,29.82,29.67,14,7,26,0.07
2014-12-1,68.1,63.4,54.7,62.1,57.8,51.0,91,82,65,29.67,29.55,15,4,31,1.00
2014-12-2,62.9,57.2,53.0,56.3,53.1,50.1,94,86,73,29.62,29.54,14,2,28,1.42
2014-12-3,62.4,59.2,55.9,59.1,56.0,53.2,94,89,84,29.83,29.55,24,5,35,0.84
2014-12-4,64.8,55.9,52.3,59.1,53.1,49.5,94,90,76,29.92,29.83,16,1,29,0.32
2014-12-5,56.9,54.8,53.0,54.0,52.2,50.7,94,91,86,29.94,29.88,12,1,20,0.35
2014-12-6,60.5,55.9,51.7,54.3,50.5,48.4,95,83,67,29.94,29.91,8,1,15,0.24
2014-12-7,55.9,52.1,49.9,49.0,47.8,46.5,89,85,76,29.93,29.90,1,0,5,0.04
2014-12-8,60.0,50.3,43.9,47.8,44.3,41.6,93,81,62,29.91,29.83,10,4,15,0.01
2014-12-9,59.4,50.7,43.1,43.6,40.6,37.5,89,70,51,29.97,29.75,12,4,18,0.01
2014-12-10,57.9,50.2,44.2,40.3,38.4,36.5,77,64,51,30.08,29.96,12,4,16,0.00
2014-12-11,58.4,48.6,42.6,47.1,40.7,36.4,87,74,63,30.08,29.99,9,1,12,0.00
2014-12-12,58.5,48.2,39.2,47.0,40.7,34.9,88,76,54,30.19,30.07,8,1,9,0.00
2014-12-13,62.9,56.6,49.2,53.0,49.8,43.9,84,78,67,30.24,30.17,8,2,18,0.00
2014-12-14,60.4,58.1,55.0,52.3,51.0,49.3,84,77,73,30.21,30.15,8,4,17,0.00
2014-12-15,61.1,58.1,55.7,54.1,51.7,48.5,92,80,68,30.15,30.00,12,5,26,0.19
2014-12-16,59.9,54.8,50.9,53.0,50.1,46.9,94,84,73,30.00,29.70,13,4,23,0.53
2014-12-17,62.3,53.7,48.5,51.7,48.6,46.5,93,83,63,29.94,29.77,5,0,9,0.02
2014-12-18,64.3,53.5,48.3,51.5,47.7,45.4,91,81,61,30.20,29.93,8,2,12,0.00
2014-12-19,63.5,51.9,44.0,50.4,46.1,41.3,92,81,53,30.27,30.20,8,2,12,0.00
2014-12-20,57.7,52.1,47.2,54.2,49.2,44.7,93,90,86,30.23,30.15,7,2,10,0.02
2014-12-21,63.5,53.0,46.3,52.0,48.5,44.7,95,85,66,30.44,30.16,8,3,12,0.00
2014-12-22,62.5,52.0,43.9,49.3,44.4,38.7,90,76,55,30.49,30.42,6,2,8,0.00
2014-12-23,57.0,51.4,45.0,49.0,45.7,42.2,91,81,73,30.46,30.38,5,2,7,0.00
2014-12-24,56.9,54.2,51.9,47.7,45.7,44.2,79,73,66,30.39,30.29,8,3,10,0.00
2014-12-25,59.2,54.3,51.6,50.8,48.4,46.2,87,81,69,30.28,30.07,6,1,12,0.00
2014-12-26,57.6,52.1,46.5,49.7,39.9,25.9,91,66,37,30.12,29.99,14,6,26,0.00
2014-12-27,56.5,46.8,37.5,51.2,36.9,27.7,92,69,45,30.12,29.48,23,5,38,0.17
2014-12-28,52.9,45.9,42.9,46.8,40.7,34.2,93,82,65,29.57,29.40,13,3,23,0.24
2014-12-29,46.0,42.7,39.0,34.9,26.5,15.9,73,54,36,30.15,29.57,24,11,41,0.00
2014-12-30,41.4,37.9,34.5,25.1,14.8,2.0,62,40,19,30.26,30.15,24,10,41,0.00
2014-12-31,38.8,35.9,31.7,21.7,18.1,12.0,61,49,34,30.24,30.08,24,12,43,0.00
2015-1-1,51.1,42.7,37.0,33.1,24.1,17.2,71,49,26,30.40,30.23,18,9,29,0.00
2015-1-2,56.1,45.5,37.5,42.6,36.5,30.9,82,71,51,30.47,30.39,7,1,12,0.00